CZ-4C DEB, 43265

Orbit data source: Space-Track

CZ-4C DEB, 43265 is space debris in SSO originally from a launch on Sat, 31 Mar 2018 UTC launched from the Taiyaun Space Center, China (TSC). Debris objects in space refer to the collection of defunct objects orbiting the Earth. Examples of debris include non-operational satellites, rocket bodies, and fragments generated from explosions, collisions, or faulty payload assembly.

Loading next visibility...
CZ-4C DEB details
Identifier
43265, 2018-031G
Orbit
SSO
Last TLE update1 day ago
Origin
Flag of CNCNSA (CN / PRC)
ManufacturerUnknown
MissionSpacecraft
Bus & MotorUnknown
MassUnknown
Launch date (UTC)
2018-03-31 (7 years ago)
Launch vehicleUnknown
Launch site
Taiyaun Space Center, China (TSC)
Object type
Payload
Rocket body
Debris
Shape & HBRUnknown
Radar Cross SectionLarge (>1 m²)

Expand to show TLE details & history

TLE from 1 day ago
0 CZ-4C DEB
1 43265U 18031G   24360.46530273  .00016692  00000-0  16509-2 0  9995
2 43265  97.8259  73.7978 0004143 215.0961 144.9986 14.91953235363778
Epoch: 2024-12-25T11:10Z
Definitive object data (Epoch: 2024-12-25T11:10:02.155Z)
Latitude0.00003°
Longitude171.83016°
Altitude597.252 km
Speed7.56 km/s
True Right ascension04h 55m 11s
True Declination0° 00' 00"
Sunlit
Object was in full shadow at TLE epoch
Visualization TLE readout
Latitude-73.41044°
Longitude-159.87213°
Altitude617.838 km
Speed7.549 km/s
Apparent Right ascension23h 53m 21s
Apparent Declination-69° 30' 20"
Sunlit
Object is in daylight
Visualization observer readout
Local Sidereal Time10:19:44
Azimuth195.187° SSW
Elevation-57.941°
Doppler factor1
Orbital elements
Apogee altitude591.754 km
Perigee altitude585.981 km
Semi-major axis6,967.004 km
Eccentricity0.0004143
Inclination97.8259°
RAAN73.7978°
Arg. of periapsis215.0961°
True anomaly145.02582°
Mean anomaly144.9986°
Eccentric anomaly145.01221°
Mean motion3.73228 °/min
BSTAR0.0016509
Orbital period96.46 mins
Loading maneuver chart data...
Loading historical data...
Loading historical data...
Loading historical data...
Loading historical data...
Loading historical data...
Loading historical data...
Loading historical data...

CZ-4C DEB Visibility forecast

Observer location: undefined°, undefined

Span
Click to sort rows by Start time (UTC) header in descending order
Start Az.
Max El. time (UTC)
Max El. Az.
Max El.
End time (UTC)
End Az.
6 mins2024-12-26 18:19:28.345Z357.471° N2024-12-26 18:22:28.345Z268.595° W38.735°2024-12-26 18:25:28.345Z211.472° SW
6 mins2024-12-27 05:09:28.345Z166.928° S2024-12-27 05:11:28.345Z169.248° S44.11°2024-12-27 05:15:28.345Z347.386° N
|